Weather in Mikulov

Czech Republic     48°48′28″N   16°38′19″E
temp.,
°C
wind,
m/s
gust,
m/s
humid.,
%
clouds,
%
prec.,
mm/h
press.,
hPa
HPBL,
m
12 april, mon
mon1223:00+10se6136976 0.0 1014613
02:00+7ese388316 0.0 1014186
05:00+6e119126 0.0 101511
08:00+8sw118592 0.0 1016194
11:00+13wnw226752 0.0 1017833
14:00+15nw4360100 0.0 10171415
17:00+5wnw91282100 0.4 1020451
20:00+3nw71094100 3.1 1023528
13 april, tue
tue1323:00+1nnw61298100 5.8 1025539
02:00+2nnw51098100 8.8 1025455
05:00+2nnw61198100 0.5 1025807
08:00+3nnw61188100 0.6 1026867
11:00+3n71186100 0.3 10261043
14:00+3n71195100 1.6 1026979
17:00+4n61194100 0.9 1025936
20:00+3nne61376100 1.3 1026625
14 april, wed
wed1423:00+3nnw3779100 0.0 1025209
02:00+3nnw41074100 0.0 1025351
05:00+2nnw41077100 0.0 1025370
08:00+4nnw51075100 0.0 1025802
11:00+6n8967100 0.1 10251316
14:00+7n71055100 0.8 10241703
17:00+7n6954100 0.3 10231793
20:00+4nnw3766100 0.4 1024153
15 april, thu
thu1523:00+2wnw3271100 0.0 102436
02:00+1wnw347599 0.0 102489
05:00−1wnw33815 0.0 102344
08:00+3wnw48705 0.0 1024314
11:00+6nnw566498 0.1 10231312
14:00+8nnw4555100 1.1 10221507
17:00+8nnw555399 1.0 10211470
20:00+4nne347669 1.3 102251
16 april, fri
fri1623:00+1n22935 0.0 102333
02:000nw11925 0.0 102311
05:00−1nw11945 0.0 102310
08:00+2wnw22795 0.0 1024249
11:00+6wnw23545 0.0 10231141
14:00+9nw22435 0.0 10221568
17:00+10n01415 0.0 10211644
20:00+5se22550 0.0 102110